Weather History for Melun, France

Change the Weather History Date:

Friday, January 25, 2013

  Actual Average (LFPO) Record (LFPO)
Temperature  
Mean Temperature 26 °F -  
Max Temperature 28 °F 45 °F 55 °F (1999)
Min Temperature 24 °F 34 °F 19 °F (2006)
Degree Days  
Heating Degree Days 39    
Moisture  
Dew Point 23 °F    
Average Humidity 85    
Maximum Humidity 93    
Minimum Humidity 80    
Precipitation  
Precipitation 0.00 in - - ()
Sea Level Pressure  
Sea Level Pressure 30.05 in    
Wind  
Wind Speed 5 mph ()    
Max Wind Speed 15 mph    
Max Gust Speed -    
Visibility 3.3 miles    
Events      
Averages and records for this station are not official NWS values.
T = Trace of Precipitation, MM = Missing Value Source: Averaged Metar Reports

Daily Weather History Graph

Daily Weather History Graph

Search for Another Location

Airport:

Trip Planner

Search our weather history database for the weather conditions in past years. The results will help you decide how hot, cold, wet, or windy it might be!

Date:

Astronomy

Jan. 25, 2013 Rise Set
Actual Time 8:27 AM CET 5:36 PM CET
Civil Twilight 7:52 AM CET 6:11 PM CET
Nautical Twilight 7:14 AM CET 6:49 PM CET
Astronomical Twilight 6:37 AM CET 7:26 PM CET
Moon 4:18 PM CET (1/25) 6:58 AM CET (1/25)
Length of Visible Light 10h 18m
Length of Day
9h 09m
Waxing Gibbous, 97% of the Moon is Illuminated
Jan 25
Waxing Gibbous
Jan 27
Full
Feb 3
Last Quarter
Feb 10
New
Feb 17
First Quarter

Hourly Weather History & Observations

Time (CET) Temp. Windchill Dew Point Humidity Pressure Visibility Wind Dir Wind Speed Gust Speed Precip Events Conditions
12:00 AM 24.8 °F 17.9 °F 23.0 °F 93% 30.06 in - North 5.8 mph - N/A   Overcast
12:30 AM 26.6 °F 22.6 °F 23.0 °F 86% 30.09 in - North 3.5 mph - N/A   Overcast
1:00 AM 26.6 °F 21.2 °F 23.0 °F 86% 30.09 in 1.9 mi NNE 4.6 mph - N/A   Overcast
1:30 AM 26.6 °F 21.2 °F 23.0 °F 86% 30.09 in - NNE 4.6 mph - N/A   Overcast
2:00 AM 26.6 °F 21.2 °F 23.0 °F 86% 30.09 in 2.2 mi North 4.6 mph - N/A   Overcast
2:30 AM 26.6 °F 21.2 °F 23.0 °F 86% 30.09 in 2.2 mi North 4.6 mph - N/A   Overcast
3:00 AM 26.6 °F 22.6 °F 23.0 °F 86% 30.12 in - NNE 3.5 mph - N/A   Overcast
3:30 AM 26.6 °F 21.2 °F 21.2 °F 80% 30.09 in 2.8 mi North 4.6 mph - N/A   Overcast
4:00 AM 26.6 °F 21.2 °F 21.2 °F 80% 30.09 in 3.1 mi NE 4.6 mph - N/A   Overcast
4:30 AM 26.6 °F 22.6 °F 21.2 °F 80% 30.09 in - Variable 3.5 mph - N/A   Overcast
5:00 AM 26.6 °F 22.6 °F 21.2 °F 80% 30.09 in 3.1 mi NNW 3.5 mph - N/A   Overcast
5:30 AM 26.6 °F - 23.0 °F 86% 30.09 in 3.1 mi Variable 2.3 mph - N/A   Overcast
6:00 AM 26.6 °F - 23.0 °F 86% 30.09 in 3.1 mi Variable 2.3 mph - N/A   Overcast
6:30 AM 26.6 °F - 23.0 °F 86% 30.09 in 3.1 mi Variable 2.3 mph - N/A   Overcast
7:00 AM 26.6 °F - 23.0 °F 86% 30.09 in 3.1 mi North - - N/A   Overcast
7:30 AM 26.6 °F - 23.0 °F 86% 30.09 in 3.1 mi Variable 2.3 mph - N/A   Overcast
8:00 AM 26.6 °F 22.6 °F 23.0 °F 86% 30.09 in 3.1 mi South 3.5 mph - N/A   Overcast
8:30 AM 26.6 °F - 23.0 °F 86% 30.09 in 3.1 mi Variable 1.2 mph - N/A   Overcast
9:00 AM 26.6 °F - 23.0 °F 86% 30.09 in 3.1 mi Variable 2.3 mph - N/A   Overcast
9:30 AM 26.6 °F - 21.2 °F 80% 30.12 in 3.1 mi Calm Calm - N/A   Overcast
10:00 AM 26.6 °F - 23.0 °F 86% 30.12 in 3.1 mi Variable 2.3 mph - N/A   Overcast
10:30 AM 26.6 °F 21.2 °F 23.0 °F 86% 30.12 in 3.1 mi SSW 4.6 mph - N/A   Overcast
11:00 AM 26.6 °F 21.2 °F 23.0 °F 86% 30.12 in 3.1 mi SSW 4.6 mph - N/A   Overcast
11:30 AM 26.6 °F 22.6 °F 23.0 °F 86% 30.12 in 3.1 mi Variable 3.5 mph - N/A   Overcast
12:00 PM 26.6 °F 22.6 °F 23.0 °F 86% 30.12 in 3.1 mi SW 3.5 mph - N/A   Overcast
12:30 PM 26.6 °F 21.2 °F 23.0 °F 86% 30.09 in 3.1 mi South 4.6 mph - N/A   Overcast
1:00 PM 26.6 °F 20.0 °F 23.0 °F 86% 30.09 in 3.1 mi SSE 5.8 mph - N/A   Overcast
1:30 PM 28.4 °F 23.3 °F 23.0 °F 80% 30.06 in 3.1 mi SSE 4.6 mph - N/A   Overcast
2:00 PM 28.4 °F 22.2 °F 23.0 °F 80% 30.06 in 3.7 mi South 5.8 mph - N/A   Overcast
2:30 PM 28.4 °F 23.3 °F 24.8 °F 86% 30.06 in 3.1 mi South 4.6 mph - N/A   Overcast
3:00 PM 28.4 °F 22.2 °F 24.8 °F 86% 30.04 in 3.1 mi South 5.8 mph - N/A   Overcast
3:30 PM 28.4 °F 21.2 °F 23.0 °F 80% 30.04 in 3.7 mi South 6.9 mph - N/A   Overcast
4:00 PM 28.4 °F 21.2 °F 23.0 °F 80% 30.04 in 4.3 mi SSE 6.9 mph - N/A   Overcast
4:30 PM 28.4 °F 21.2 °F 23.0 °F 80% 30.04 in 4.3 mi SSE 6.9 mph - N/A   Overcast
5:00 PM 28.4 °F 21.2 °F 23.0 °F 80% 30.04 in 4.3 mi SSE 6.9 mph - N/A   Overcast
5:30 PM 28.4 °F 20.4 °F 23.0 °F 80% 30.04 in 4.3 mi SE 8.1 mph - N/A   Overcast
6:00 PM 28.4 °F 19.7 °F 23.0 °F 80% 30.01 in 4.3 mi SE 9.2 mph - N/A   Overcast
6:30 PM 28.4 °F - 23.0 °F 80% 30.01 in 4.3 mi North - - N/A   Overcast
7:00 PM 28.4 °F 19.1 °F 23.0 °F 80% 29.98 in 4.3 mi SE 10.4 mph - N/A   Overcast
7:30 PM 28.4 °F 19.7 °F 24.8 °F 86% 29.98 in 3.7 mi SSE 9.2 mph - N/A   Overcast
8:00 PM 28.4 °F 18.0 °F 23.0 °F 80% 29.98 in 3.7 mi SE 12.7 mph - N/A   Overcast
8:30 PM 26.6 °F 16.2 °F 24.8 °F 93% 29.95 in - SE 11.5 mph - N/A   Overcast
9:00 PM 26.6 °F 14.7 °F 23.0 °F 86% 29.92 in - SE 15.0 mph - N/A   Overcast
9:30 PM 26.6 °F 15.7 °F 23.0 °F 86% 29.92 in 3.1 mi SSE 12.7 mph - N/A   Overcast
10:00 PM 26.6 °F 15.2 °F 23.0 °F 86% 29.89 in 3.1 mi SE 13.8 mph - N/A   Overcast
10:30 PM 26.6 °F 16.2 °F 23.0 °F 86% 29.89 in 3.1 mi SE 11.5 mph - N/A   Overcast
11:00 PM 26.6 °F 15.2 °F 24.8 °F 93% 29.86 in 3.1 mi SE 13.8 mph - N/A   Overcast
11:30 PM 26.6 °F 16.2 °F 24.8 °F 93% 29.86 in 3.1 mi SE 11.5 mph - N/A   Overcast